www.pogodaiklimat.ru

Погода и климат >> Архив погоды >> Россия >> Камчатский край >> Долиновка


ПОГОДА в Долиновке

  • Прогноз погоды в Долиновке
  • Монитор погоды в Долиновке

АРХИВ ПОГОДЫ в Долиновке

Время (UTC), дата Ветер
(напр.,м/с)
 
Видим.   Явления Облачность Т
(С)
Тd
(С)
f
(%)
Тe
(С)
Тes
(С)
Комфортность P
(гПа)
Po
(гПа)
Тmin
(С)
Tmax
(С)
R
(мм)
R24
(мм)
S
(см)
06 13.05 СЗ 3 50 км 5/0
[Ci fib]
+22.5 -6.3 14 +21 +23 комфорт 1009.1 997.3
09 13.05 С 1 50 км 9/0
[Ci fib]
+16.8 -4.8 22 +18 +18 1009.0 997.0 +23.6
12 13.05 ЮЗ 1 20 км 9/0
[Ci fib]
+5.7 -0.6 64 +5 +5 1011.2 998.7
15 13.05 штиль 0 20 км 8/0
[Ci fib]
+0.4 -0.3 95 -1 -1 1011.5 998.7
18 13.05 штиль 0 50 км 9/0
[Ac As Ci sp]
-1.2 -1.2 100 -3 -3 1010.1 997.3
21 13.05 ЮЗ 2 50 км 9/3 1000 м
[Sc Ac As Ci sp]
+9.9 +1.0 54 +9 +11 1007.1 994.9 -1.7
00 14.05 ЮЗ 3 50 км 9/8 1000 м
[Sc Ac As Ci sp]
+15.3 -0.7 33 +15 +17 1004.3 992.3
03 14.05 СЗ 2 50 км 9/8 1000 м
[Sc Ac As Ci sp]
+16.7 -2.9 26 +17 +18 1002.7 990.7
06 14.05 З 4
{10}
50 км 4/3 1000 м
[Sc Ac As]
+16.4 -3.7 25 +16 +18 999.9 988.0
09 14.05 З 6-12
{15}
50 км 3/3 1000 м
[Sc]
+7.8 -2.0 50 +4 +4 1001.4 989.2 +18.7
12 14.05 СЗ 1
{12}
20 км 10/10 600 м
[Cb cap]
+6.2 -2.1 55 +6 +6 1002.9 990.6
15 14.05 штиль 0 20 км 10/10 1000 м
[Sc]
+4.1 -0.3 73 +3 +3 1004.5 992.0
18 14.05 В 1 50 км в посл. час ливневой дождь 10/8 600 м
[Cb cap Ac As]
+2.9 -0.4 79 +1 +1 1005.9 993.3
21 14.05 ЮВ 1 50 км 9/8 1000 м
[Sc Ac As]
+4.9 +0.4 73 +4 +5 1007.0 994.5 +2.8 0.3
00 15.05 СВ 2 50 км 9/9 1000 м
[Sc]
+8.6 -3.7 42 +7 +9 1007.7 995.4
03 15.05 СВ 2 50 км 9/9 1000 м
[Sc]
+9.9 -2.7 41 +9 +10 1009.6 997.3
06 15.05 СВ 2 50 км 9/9 1000 м
[Sc]
+9.9 -2.1 43 +9 +9 1011.0 998.7
09 15.05 СВ 2 50 км 9/9 1000 м
[Sc]
+7.6 -0.4 57 +6 +6 1012.5 1000.0 +10.5
12 15.05 СВ 2 20 км 9/9 1000 м
[Sc]
+5.5 -1.4 61 +3 +3 1016.6 1004.0
15 15.05 СВ 3 20 км 9/9 1000 м
[Sc]
+4.6 -2.5 60 +1 +1 1018.0 1005.3
18 15.05 СВ 2 50 км 9/6 1000 м
[Sc Ac As]
+3.4 -2.1 67 +1 +1 1019.4 1006.7
21 15.05 СВ 2 50 км 9/5 1000 м
[Sc Ac As]
+5.7 -2.4 56 +4 +5 1020.1 1007.5 +3.3
00 16.05 СВ 2 50 км 8/8 600 м
[Cu med, cong]
+9.0 -3.8 40 +8 +11 1019.9 1007.5
03 16.05 С 2 50 км 10/10 600 м
[Cu Sc]
+10.7 -4.9 33 +10 +10 1020.4 1008.0
06 16.05 В 1 50 км 10/6 1000 м
[Sc Ac As]
+11.3 -4.8 32 +12 +12 1020.4 1008.0
09 16.05 СВ 1 50 км 10/10 1000 м
[Sc]
+9.4 -2.9 42 +9 +9 1021.8 1009.3 +11.3
12 16.05 СВ 1 20 км 8/8 1000 м
[Sc]
+6.8 -3.2 49 +6 +6 1024.6 1012.0
15 16.05 штиль 0 20 км 8/8 1000 м
[Sc]
+2.9 -2.6 67 +2 +2 1024.8 1012.0
18 16.05 З 1 50 км 3/3 1000 м
[Sc]
-2.2 -2.3 99 -5 -4 1026.4 1013.3
21 16.05 Ю 1 50 км 4/0
[Ci sp]
+7.0 -2.4 51 +7 +13 1025.1 1012.5 -2.2
00 17.05 ЮЗ 1 50 км 3/1 600 м
[Cu hum Ci fib]
+13.0 -4.5 29 +14 +27 опасность
простуды
1023.8 1011.5
03 17.05 С 1 50 км 8/5 600 м
[Cu hum Ac As]
+15.8 -5.3 23 +17 +21 1022.9 1010.7
06 17.05 СВ 2 50 км 6/6 600 м
[Cu Sc]
+17.2 -4.7 22 +18 +20 1021.5 1009.3
09 17.05 СВ 2 50 км 6/3 1000 м
[Sc Ac lent]
+11.4 -3.9 34 +11 +11 1024.4 1012.0 +17.4
12 17.05 штиль 0 20 км 9/3 1000 м
[Sc Ci fib]
+3.5 -0.3 76 +3 +3 1024.8 1012.0
15 17.05 штиль 0 20 км 10/10 1000 м
[Sc]
+3.5 -0.5 75 +3 +3 1024.8 1012.0
18 17.05 штиль 0 50 км 9/9 1000 м
[Sc]
+2.5 +0.1 84 +1 +1 1024.8 1012.0
21 17.05 ЮЗ 2 50 км 4/0
[Ci fib]
+11.2 -0.7 44 +10 +16 1022.6 1010.2 +0.9
00 18.05 В 1 50 км ясно +16.5 -3.1 26 +18 +34 опасность
простуды
1021.5 1009.3
03 18.05 Ю 2 50 км ясно +19.0 -3.8 21 +20 +33 опасность
простуды
1020.1 1008.0
06 18.05 З 3 50 км 4/0
[Ci fib]
+21.0 -2.8 20 +21 +24 комфорт 1018.7 1006.7
09 18.05 З 1 50 км 3/0
[Ci fib]
+15.7 -1.4 31 +17 +17 1018.9 1006.7 +21.2
12 18.05 штиль 0 20 км 8/3 1000 м
[Sc Ci fib]
+8.3 +0.8 59 +8 +8 1019.2 1006.7
15 18.05 штиль 0 20 км 8/0
[Ci fib]
+1.8 +1.2 96 +1 +1 1019.5 1006.7
18 18.05 штиль 0 50 км 10/6 1000 м
[Sc Ac As]
+3.7 +1.1 83 +3 +3 1018.0 1005.3
21 18.05 ЮЗ 4 50 км 9/3 1000 м
[Sc Ac trans Ci fib]
+13.0 -1.5 37 +12 +13 1014.8 1002.6 +1.3
00 19.05 З 5 20 км слаб. ливневой дождь 10/10 600 м
[Cb cap]
+12.2 +3.5 55 +10 +10 1012.5 1000.3
03 19.05 ЮЗ 2 50 км {ливн. осадки} 10/10 600 м
[Cb cap]
+8.6 +7.5 93 +7 +7 1011.1 998.7
06 19.05 СВ 1 50 км 10 баллов +11.1 +7.8 80 +11 +11 1005.5 993.3
09 19.05 Ю 1 20 км слаб. ливневой дождь 10/10 600 м
[Cb cap]
+10.0 +9.4 96 +9 +9 1002.9 990.7 +14.4 4
12 19.05 ЮЗ 2 20 км {ливн. осадки} 3/3 1000 м
[Sc]
+7.0 +6.6 97 +5 +5 1002.6 990.3
15 19.05 ЮЗ 2 20 км 2 балла +3.2 +3.1 99 -0 -0 1003.2 990.7
18 19.05 ЮЗ 3 50 км 9 баллов +5.6 +3.4 86 +2 +2 1001.7 989.3
21 19.05 ЮЗ 6
{10}
50 км 9/5 1000 м
[Sc Ci fib]
+11.1 +5.5 68 +8 +9 1000.9 988.8 +2.6 0.3
00 20.05 З 3
{10}
50 км 9/9 1000 м
[Sc]
+13.5 +3.8 52 +13 +14 1000.5 988.5
03 20.05 З 6-11
{12}
50 км 9/8 1000 м
[Sc Ci fib]
+14.6 +1.1 40 +13 +14 1001.5 989.5

 

Местоположение метеостанции Долиновка (Камчатский край, Россия): широта 55.12 долгота 159.00 высота над уровнем моря 102 м.

В архиве по умолчанию представлена погода в Долиновке за последнюю неделю. Архивные данные за месяц целиком и за предыдущие месяцы, начиная с января 2011 года, Вы можете получить, выбрав интересующий диапазон дат из раскрывающегося списка и нажав кнопку "Ввод!".


*Определитесь, кто Вы:
робот инопланетянин человек

Внимание! Время в таблицах - всемирное. Для получения местного времени необходимо прибавить поправку, которая равна 12 ч.

Смотрите также архив погоды в соседних городах и на ближайших метеорологических станциях:

Погода в Мильково (Камчатский край, Россия) (58 км)
Погода в Эссо (Камчатский край, Россия) (92 км)
Погода в Козыревске (Камчатский край, Россия) (115 км)
Погода в Пущино (Камчатский край, Россия) (123 км)
Погода в Семячике (Камчатский край, Россия) (125 км)
Погода в Ключах (Камчатский край, Россия) (175 км)
Погода в Соболево (Камчатский край, Россия) (219 км)
Погода в Иче (Камчатский край, Россия) (227 км)
Погода в Петропавловск-Камч. 2 (Камчатский край, Россия) (229 км)
Погода в Сосновке (Камчатский край, Россия) (231 км)

Пояснения к столбцам:

Ветер - указаны скорость ветра в м/с - средняя за 10 мин, порывы в срок и между сроками (в фигурных скобках) и направление, откуда дует ветер: С - северный, СВ - северо-восточный, В - восточный, ЮВ - юго-восточный, Ю - южный, ЮЗ - юго-западный, З - западный, СЗ - северо-западный.
Видимость - горизонтальная дальность видимости в метрах или километрах. При видимости от 1 до 10 км при отсутствии осадков обычно наблюдается дымка, при ухудшении видимости до 1 км и менее - туман. В сухую погоду видимость может ухудшаться дымом, пылью или мглою.
Явления - указаны атмосферные явления, наблюдавшиеся в срок или в последний час перед сроком; фигурными скобками обозначены явления, наблюдавшиеся между сроками (за 1-3 часа до срока); квадратными скобками обозначены град или гололедные отложения с указанием их диаметра в мм.
Облачность - указаны через наклонную черту общая и нижняя облачность в баллах и высота нижней границы облаков в метрах; квадратными скобками обозначены формы облаков: Ci - перистые, Cs - перисто-слоистые, Cc - перисто-кучевые, Ac - высококучевые, As - высокослоистые, Sc - слоисто-кучевые, Ns - слоисто-дождевые, Cu - кучевые, Cb - кучево-дождевые. Подробнее классификацию облаков см. в Атласе облаков (PDF).
T - Температура воздуха - температура, измеренная на высоте 2 м над землей.
Td - Температура точки росы - температура, при понижении до которой содержащийся в воздухе водяной пар достигнет насыщения.
f - Относительная влажность воздуха - влажноcть воздуха, измеренная на высоте 2 м над землей.
Te - Эффективная температура - температура, которую ощущает одетый по сезону человек в тени. Характеристика душности погоды. При расчете учитывается влияние влажности воздуха и скорости ветра на теплоощущения человека.
Tes - Эффективная температура на солнце - температура, которую ощущает человек, с поправкой на солнечный нагрев. Характеристика знойности погоды. Зависит от высоты солнца над горизонтом, облачности и скорости ветра. Ночью, в пасмурную погоду, а также при ветре 12 м/с и более поправка равна нулю.
P - Атмосферное давление - приведенное к уровню моря атмосферное давление.
Po - Атмосферное давление - измеренное на уровне метеостанции атмосферное давление.
Tmin - Минимальная температура - минимум температуры воздуха на высоте 2 м над землей.
Tmax - Максимальная температура - максимум температуры воздуха на высоте 2 м над землей.
R - Количество осадков - Количество выпавших осадков за период времени, мм. При наведении курсора мыши на число - период времени, за который выпало указанное количество осадков.
R24 - Количество осадков - Количество выпавших осадков за 24 часа, мм.
S - Снежный покров - Высота снежного покрова, см. При наведении курсора мыши на число - состояние снежного покрова и степень покрытия местности в баллах.